ARIANE 2 DEB, 27042

Orbit data source: Space-Track

ARIANE 2 DEB, 27042 is space debris in HEO originally from a launch on Fri, 27 Jan 1989 UTC launched from the French Guiana (FRGUI). Debris objects in space refer to the collection of defunct objects orbiting the Earth. Examples of debris include non-operational satellites, rocket bodies, and fragments generated from explosions, collisions, or faulty payload assembly.

Loading next visibility...
Identifier
27042, 1989-006X
Orbit
HEO
Country
Flag of FRFR
Related business
Manufacturer
EADS/LV
Mission
Spacecraft
Bus & Motor
Unknown
Mass
Unknown
Launch date (UTC)
1989-01-27 (37 years ago)
Launch vehicle
Unknown
Launch site
French Guiana (FRGUI)
Object type
Payload
Rocket body
Debris
Shape & HBR
Unknown shape, 0.8 m
Radar Cross Section
Medium (>0.1 m² and <1 m²)

Expand to show TLE details & history
Last TLE update: 14 hours ago

TLE from 14 hours ago
0 ARIANE 2 DEB
1 27042U 89006X   25286.71921251  .00000334  00000-0  89381-2 0  9990
2 27042   8.6339 351.0901 7131633 257.5971  21.6710  2.25318526 95954
Epoch: 2025-10-13T17:15Z
TLE epoch observation values (Epoch: 2025-10-13T17:15:39.960Z)
Latitude
0.2749°
Longitude
71.34949°
Altitude
8,265.526 km
Speed
6.182 km/s
True Right ascension
23h 31m 08s
True Declination
0° 16' 27"
Sunlit
Object was in daylight at epoch
Visualization orbit readout
Latitude
Unknown
Longitude
Unknown
Altitude
Unknown
Speed
Unknown
Apparent Right ascension
Unknown
Apparent Declination
Unknown
Sunlit
N/A
Visualization observer readout
Local Sidereal Time
01:23:18
Azimuth
Unknown
Elevation
Unknown
Doppler factor
Unknown
Orbital elements
Apogee altitude
35,735.727 km
Perigee altitude
673.031 km
Semi-major axis
24,582.516 km
Eccentricity
0.71316
Inclination
8.6339°
RAAN
351.0901°
Arg. of periapsis
257.5971°
True anomaly
103.94791°
Mean anomaly
21.671°
Eccentric anomaly
55.24076°
Mean motion
0.56312 °/min
Orbital period
639.29 mins
BSTAR
0.0089381
Loading maneuver chart data...
Computing Atmospheric mass density...
Loading historical data...
Loading historical data...
Loading historical data...
Loading historical data...
Loading historical data...
Loading historical data...
Loading historical data...

Documentation

Showing up to 5 results
|